Change the Weather History Date:

Tuesday, March 12, 2013

  Actual Average Record
Temperature  
Mean Temperature 62 °F -  
Max Temperature 76 °F 65 °F 84 °F (1990)
Min Temperature 51 °F 37 °F 24 °F (1969)
Degree Days  
Heating Degree Days 3    
Growing Degree Days 12 (Base 50)    
Moisture  
Dew Point 54 °F    
Average Humidity 76    
Maximum Humidity 93    
Minimum Humidity 46    
Precipitation  
Precipitation 0.38 in - - ()
Sea Level Pressure  
Sea Level Pressure 29.85 in    
Wind  
Wind Speed 8 mph (SSW)    
Max Wind Speed 14 mph    
Max Gust Speed 25 mph    
Visibility 10 miles    
Events Rain    
Averages and records for this station are not official NWS values.
T = Trace of Precipitation, MM = Missing Value Source: NWS Daily Summary

Daily Weather History Graph

Daily Weather History Graph

Search for Another Location

Airport or City:

Trip Planner

Search our weather history database for the weather conditions in past years. The results will help you decide how hot, cold, wet, or windy it might be!

Date:

Astronomy

Mar. 12, 2013 Rise Set
Actual Time 7:24 AM EDT 7:15 PM EDT
Civil Twilight 6:59 AM EDT 7:40 PM EDT
Nautical Twilight 6:29 AM EDT 8:10 PM EDT
Astronomical Twilight 5:59 AM EDT 8:40 PM EDT
Moon 7:33 AM EDT (3/12) 8:24 PM EDT (3/12)
Length of Visible Light 12h 41m
Length of Day
11h 50m
New Moon, 1% of the Moon is Illuminated
Mar 12
New Moon
Mar 19
First Quarter
Mar 27
Full
Apr 3
Last Quarter
Apr 10
New

Hourly Weather History & Observations

Time (EDT) Temp. Dew Point Humidity Pressure Visibility Wind Dir Wind Speed Gust Speed Precip Events Conditions
12:15 AM 60.4 °F 50.7 °F 70% 29.99 in 10.0 mi SE 5.8 mph - N/A   Overcast
12:35 AM 60.4 °F 51.1 °F 71% 29.98 in 10.0 mi SE 5.8 mph - N/A   Overcast
12:55 AM 60.4 °F 51.6 °F 73% 29.97 in 10.0 mi SE 6.9 mph - N/A   Overcast
1:15 AM 60.1 °F 51.8 °F 74% 29.97 in 10.0 mi SE 5.8 mph - N/A   Overcast
1:35 AM 59.9 °F 52.0 °F 75% 29.97 in 10.0 mi SE 6.9 mph - N/A   Overcast
1:55 AM 59.9 °F 52.0 °F 75% 29.96 in 10.0 mi SE 5.8 mph - N/A   Overcast
2:15 AM 59.9 °F 52.3 °F 76% 29.95 in 10.0 mi SE 5.8 mph - N/A   Mostly Cloudy
2:35 AM 59.9 °F 52.7 °F 77% 29.94 in 10.0 mi SE 8.1 mph - N/A   Mostly Cloudy
2:55 AM 59.7 °F 53.2 °F 79% 29.94 in 7.0 mi SE 5.8 mph - N/A Rain Rain
3:15 AM 58.6 °F 54.1 °F 85% 29.92 in 7.0 mi SE 5.8 mph - N/A   Overcast
3:55 AM 58.5 °F 54.9 °F 88% 29.91 in 10.0 mi SE 9.2 mph - N/A   Light Drizzle
4:15 AM 58.5 °F 55.4 °F 90% 29.89 in 10.0 mi SE 10.4 mph - N/A Rain Light Rain
5:15 AM 58.5 °F 55.9 °F 91% 29.89 in 10.0 mi SE 6.9 mph - 0.02 in Rain Light Rain
5:35 AM 58.6 °F 56.3 °F 92% 29.88 in 10.0 mi SSE 6.9 mph - 0.02 in Rain Light Rain
5:55 AM 59.0 °F 56.3 °F 91% 29.88 in 10.0 mi SSE 4.6 mph - 0.03 in Rain Light Rain
6:15 AM 59.2 °F 56.7 °F 91% 29.87 in 10.0 mi SSE 6.9 mph - 0.02 in Rain Light Rain
6:55 AM 59.9 °F 57.6 °F 92% 29.87 in 10.0 mi SSE 8.1 mph - 0.06 in Rain Light Rain
7:15 AM 59.9 °F 57.9 °F 93% 29.86 in 10.0 mi SSE 10.4 mph - 0.01 in Rain Light Rain
7:35 AM 60.3 °F 58.3 °F 93% 29.86 in 10.0 mi SSE 6.9 mph - 0.04 in Rain Light Rain
7:55 AM 60.4 °F 58.3 °F 93% 29.84 in 10.0 mi SSE 9.2 mph - 0.06 in Rain Light Rain
8:15 AM 60.6 °F 58.5 °F 93% 29.85 in 10.0 mi SSE 10.4 mph - 0.01 in Rain Light Rain
8:35 AM 60.8 °F 58.5 °F 92% 29.85 in 10.0 mi SSE 11.5 mph 23.0 mph 0.02 in Rain Rain
8:55 AM 61.0 °F 58.6 °F 92% 29.83 in 10.0 mi SSE 12.7 mph 20.7 mph 0.05 in Rain Light Rain
9:15 AM 61.2 °F 59.0 °F 93% 29.83 in 7.0 mi SSE 13.8 mph 25.3 mph 0.02 in Rain Light Rain
9:35 AM 61.5 °F 59.0 °F 91% 29.84 in 10.0 mi South 13.8 mph 24.2 mph 0.04 in Rain Light Rain
9:55 AM 61.9 °F 59.2 °F 91% 29.84 in 10.0 mi South 12.7 mph 19.6 mph 0.04 in   Overcast
10:15 AM 62.2 °F 59.2 °F 90% 29.85 in 10.0 mi SSW 11.5 mph 18.4 mph N/A   Overcast
10:35 AM 62.4 °F 59.5 °F 90% 29.85 in 10.0 mi South 9.2 mph 25.3 mph N/A   Overcast
10:55 AM 63.1 °F 59.9 °F 89% 29.84 in 10.0 mi South 11.5 mph 17.3 mph N/A   Overcast
11:15 AM 63.7 °F 59.9 °F 87% 29.84 in 10.0 mi South 11.5 mph 16.1 mph N/A   Overcast
11:35 AM 64.0 °F 60.3 °F 87% 29.84 in 10.0 mi South 5.8 mph 16.1 mph N/A   Overcast
11:55 AM 64.8 °F 60.8 °F 87% 29.84 in 10.0 mi SSW 9.2 mph - N/A   Overcast
12:15 PM 65.3 °F 60.8 °F 85% 29.84 in 10.0 mi South 8.1 mph 17.3 mph N/A Rain Light Rain
12:35 PM 65.3 °F 60.8 °F 85% 29.84 in 10.0 mi South 8.1 mph - N/A Rain Light Rain
12:55 PM 65.7 °F 61.0 °F 85% 29.82 in 10.0 mi South 10.4 mph - N/A Rain Light Rain
1:15 PM 66.0 °F 61.0 °F 84% 29.82 in 7.0 mi South 10.4 mph 19.6 mph 0.01 in Rain Light Rain
1:35 PM 66.0 °F 61.0 °F 84% 29.81 in 10.0 mi SSW 6.9 mph - 0.01 in Rain Light Rain
1:55 PM 66.6 °F 60.8 °F 82% 29.80 in 10.0 mi South 8.1 mph 17.3 mph 0.01 in   Overcast
2:15 PM 68.4 °F 61.2 °F 78% 29.78 in 10.0 mi SSW 11.5 mph 17.3 mph N/A   Overcast
2:35 PM 68.9 °F 60.3 °F 74% 29.77 in 10.0 mi SW 6.9 mph 18.4 mph N/A   Overcast
2:55 PM 65.8 °F 59.9 °F 81% 29.78 in 4.0 mi SW 8.1 mph - 0.13 in Rain Light Rain
3:15 PM 66.9 °F 62.4 °F 85% 29.76 in 10.0 mi SSW 8.1 mph - N/A   Scattered Clouds
3:55 PM 69.4 °F 61.2 °F 75% 29.74 in 10.0 mi SW 13.8 mph 18.4 mph N/A   Mostly Cloudy
4:15 PM 70.2 °F 60.6 °F 72% 29.74 in 10.0 mi SSW 11.5 mph - N/A   Mostly Cloudy
4:35 PM 71.1 °F 60.1 °F 68% 29.74 in 10.0 mi SSW 12.7 mph - N/A   Scattered Clouds
4:55 PM 71.4 °F 59.4 °F 66% 29.73 in 10.0 mi SW 9.2 mph - N/A   Scattered Clouds
5:15 PM 72.0 °F 59.2 °F 64% 29.74 in 10.0 mi SW 11.5 mph - N/A   Scattered Clouds
5:35 PM 70.7 °F 58.5 °F 65% 29.75 in 10.0 mi West 8.1 mph - N/A   Mostly Cloudy
5:55 PM 70.0 °F 58.8 °F 68% 29.75 in 10.0 mi WNW 8.1 mph - N/A   Mostly Cloudy
6:15 PM 69.8 °F 58.3 °F 67% 29.76 in 10.0 mi NW 4.6 mph - N/A   Scattered Clouds
6:35 PM 68.7 °F 56.8 °F 66% 29.76 in 10.0 mi NW 6.9 mph - N/A   Mostly Cloudy
6:55 PM 68.2 °F 54.7 °F 62% 29.77 in 10.0 mi NW 6.9 mph 17.3 mph N/A   Mostly Cloudy
7:15 PM 67.3 °F 53.4 °F 61% 29.79 in 10.0 mi NW 9.2 mph - N/A   Mostly Cloudy
7:55 PM 64.0 °F 52.0 °F 65% 29.82 in 10.0 mi NNW 4.6 mph - N/A   Mostly Cloudy
8:15 PM 62.6 °F 50.7 °F 65% 29.83 in 10.0 mi NW 5.8 mph - N/A   Scattered Clouds
8:35 PM 61.5 °F 47.7 °F 60% 29.84 in 10.0 mi NW 5.8 mph - N/A   Clear
8:55 PM 60.8 °F 45.9 °F 58% 29.85 in 10.0 mi NW 6.9 mph - N/A   Clear
9:15 PM 59.9 °F 44.2 °F 56% 29.85 in 10.0 mi NW 5.8 mph - N/A   Clear
9:55 PM 57.4 °F 41.2 °F 55% 29.87 in 10.0 mi NNW 5.8 mph - N/A   Clear
10:15 PM 56.5 °F 38.7 °F 51% 29.88 in 10.0 mi NW 9.2 mph - N/A   Clear
10:35 PM 55.8 °F 35.8 °F 47% 29.89 in 10.0 mi NW 8.1 mph 16.1 mph N/A   Clear
10:55 PM 54.9 °F 34.3 °F 46% 29.90 in 10.0 mi NW 9.2 mph - N/A   Clear
11:15 PM 53.6 °F 33.8 °F 47% 29.90 in 10.0 mi NW 9.2 mph - N/A   Clear
11:35 PM 52.5 °F 33.4 °F 48% 29.91 in 10.0 mi NW 5.8 mph - N/A   Clear
11:55 PM 51.8 °F 32.9 °F 49% 29.92 in 10.0 mi NW 5.8 mph - N/A   Clear